Charlotte, MI

11:48 PM EST on January 22, 2018 (GMT -0500)
Charlotte

Weather History for KFPK - June, 2013

Change the Weather History Date:

Thursday, June 27, 2013

  Actual Average (KLAN) Record (KLAN)
Temperature  
Mean Temperature 73 °F -  
Max Temperature 84 °F 80 °F 98 °F (1870)
Min Temperature 62 °F 57 °F 38 °F (1866)
Cooling Degree Days 8    
Growing Degree Days 23 (Base 50)    
Moisture  
Dew Point 67 °F    
Average Humidity 85    
Maximum Humidity 100    
Minimum Humidity 54    
Precipitation  
Precipitation 0.19 in - - ()
Sea Level Pressure  
Sea Level Pressure 29.73 in    
Wind  
Wind Speed 3 mph (West)    
Max Wind Speed 16 mph    
Max Gust Speed 23 mph    
Visibility 7 miles    
Events Fog , Rain    
Averages and records for this station are not official NWS values.
T = Trace of Precipitation, MM = Missing Value Source: NWS Daily Summary

Daily Weather History Graph

Daily Weather History Graph

Search for Another Location

Airport or City:

Trip Planner

Search our weather history database for the weather conditions in past years. The results will help you decide how hot, cold, wet, or windy it might be!

Date:

Astronomy

Jun. 27, 2013 Rise Set
Actual Time 6:03 AM EDT 9:20 PM EDT
Civil Twilight 5:28 AM EDT 9:55 PM EDT
Nautical Twilight 4:43 AM EDT 10:40 PM EDT
Astronomical Twilight 3:48 AM EDT 11:36 PM EDT
Moon No Moon Rise 11:10 AM EDT (6/27)
Length of Visible Light 16h 27m
Length of Day
15h 17m
Waning Gibbous, 76% of the Moon is Illuminated
Jun 27
Waning Gibbous
Jun 30
Last Quarter
Jul 8
New
Jul 15
First Quarter
Jul 22
Full

Hourly Weather History & Observations

Time (EDT) Temp. Heat Index Dew Point Humidity Pressure Visibility Wind Dir Wind Speed Gust Speed Precip Events Conditions
12:15 AM 68.5 °F - 66.2 °F 92% 29.77 in 10.0 mi Calm Calm - N/A   Clear
12:35 AM 68.9 °F - 66.2 °F 91% 29.77 in 10.0 mi Calm Calm - N/A   Clear
12:55 AM 68.4 °F - 66.2 °F 93% 29.77 in 10.0 mi South 3.5 mph - N/A   Mostly Cloudy
1:15 AM 68.4 °F - 66.7 °F 95% 29.76 in 7.0 mi SSE 6.9 mph - 0.01 in Rain Light Rain
1:35 AM 68.0 °F - 66.6 °F 95% 29.76 in 10.0 mi Calm Calm - 0.01 in   Clear
1:55 AM 67.5 °F - 66.7 °F 98% 29.75 in 10.0 mi Calm Calm - 0.01 in   Scattered Clouds
2:15 AM 67.1 °F - 66.4 °F 98% 29.75 in 10.0 mi Calm Calm - N/A   Clear
2:35 AM 67.3 °F - 66.4 °F 97% 29.74 in 7.0 mi Calm Calm - N/A   Clear
2:55 AM 66.7 °F - 66.2 °F 98% 29.74 in 7.0 mi Calm Calm - N/A   Clear
3:15 AM 66.0 °F - 65.5 °F 98% 29.74 in 7.0 mi Calm Calm - N/A   Clear
3:35 AM 66.4 °F - 65.7 °F 98% 29.75 in 7.0 mi Calm Calm - N/A   Scattered Clouds
3:55 AM 65.8 °F - 65.7 °F 99% 29.75 in 4.0 mi Calm Calm - N/A   Scattered Clouds
4:15 AM 65.5 °F - 65.3 °F 99% 29.75 in 3.0 mi Calm Calm - N/A   Scattered Clouds
4:35 AM 65.3 °F - 65.3 °F 100% 29.75 in 3.0 mi Calm Calm - N/A   Mostly Cloudy
4:55 AM 65.1 °F - 65.1 °F 100% 29.75 in 2.0 mi Calm Calm - N/A   Mostly Cloudy
5:15 AM 65.5 °F - 65.5 °F 100% 29.75 in 2.5 mi Calm Calm - N/A   Scattered Clouds
5:35 AM 63.3 °F - 63.3 °F 100% 29.76 in 0.5 mi Calm Calm - N/A Fog Fog
5:55 AM 63.1 °F - 63.1 °F 100% 29.76 in 0.2 mi Calm Calm - N/A Fog Fog
6:15 AM 62.6 °F - 62.6 °F 100% 29.76 in 0.2 mi Calm Calm - N/A Fog Fog
6:35 AM 63.3 °F - 63.3 °F 100% 29.76 in 0.2 mi Calm Calm - N/A Fog Fog
6:55 AM 62.8 °F - 62.8 °F 100% 29.76 in 0.2 mi Calm Calm - N/A Fog Fog
7:15 AM 64.8 °F - 64.8 °F 100% 29.75 in 0.5 mi Calm Calm - N/A Fog Fog
7:35 AM 66.6 °F - 66.6 °F 100% 29.75 in 2.5 mi Calm Calm - N/A   Scattered Clouds
7:55 AM 67.3 °F - 67.3 °F 100% 29.75 in 2.0 mi Calm Calm - N/A   Overcast
8:15 AM 67.1 °F - 67.1 °F 100% 29.76 in 1.2 mi Calm Calm - N/A   Overcast
8:35 AM 67.8 °F - 67.8 °F 100% 29.75 in 1.5 mi Calm Calm - N/A   Overcast
8:55 AM 68.9 °F - 68.4 °F 98% 29.74 in 2.5 mi Calm Calm - N/A   Overcast
9:15 AM 68.5 °F - 68.0 °F 98% 29.75 in 2.5 mi Calm Calm - N/A   Overcast
9:35 AM 69.8 °F - 68.4 °F 95% 29.75 in 4.0 mi Calm Calm - N/A   Overcast
9:55 AM 70.9 °F - 68.5 °F 92% 29.75 in 5.0 mi Calm Calm - N/A   Mostly Cloudy
10:15 AM 71.8 °F - 69.1 °F 91% 29.75 in 7.0 mi Calm Calm - N/A   Mostly Cloudy
10:35 AM 73.6 °F - 69.3 °F 86% 29.75 in 7.0 mi Calm Calm - N/A   Mostly Cloudy
10:55 AM 75.2 °F - 68.5 °F 80% 29.75 in 10.0 mi Calm Calm - N/A   Scattered Clouds
11:15 AM 77.4 °F - 68.9 °F 75% 29.75 in 10.0 mi WNW 4.6 mph - N/A   Clear
11:35 AM 78.1 °F - 68.4 °F 72% 29.75 in 10.0 mi Calm Calm - N/A   Clear
11:55 AM 78.8 °F - 69.4 °F 73% 29.75 in 10.0 mi Calm Calm - N/A   Clear
12:15 PM 80.6 °F 83.9 °F 70.2 °F 70% 29.74 in 10.0 mi SW 3.5 mph - N/A   Scattered Clouds
12:35 PM 80.6 °F 83.8 °F 69.4 °F 69% 29.74 in 10.0 mi Calm Calm - N/A   Scattered Clouds
12:55 PM 82.9 °F 87.2 °F 70.3 °F 66% 29.74 in 10.0 mi WNW 4.6 mph - N/A   Scattered Clouds
1:15 PM 82.0 °F 85.3 °F 68.7 °F 64% 29.73 in 10.0 mi WNW 5.8 mph - N/A   Scattered Clouds
1:35 PM 83.3 °F 87.4 °F 70.2 °F 64% 29.72 in 10.0 mi WSW 5.8 mph - N/A   Scattered Clouds
1:55 PM 82.6 °F 85.7 °F 68.5 °F 62% 29.72 in 10.0 mi West 4.6 mph - N/A   Scattered Clouds
2:15 PM 83.5 °F 86.9 °F 68.5 °F 61% 29.71 in 10.0 mi West 5.8 mph - N/A   Mostly Cloudy
2:35 PM 82.9 °F 87.0 °F 70.0 °F 65% 29.71 in 10.0 mi SW 4.6 mph - N/A   Mostly Cloudy
2:55 PM 81.7 °F 85.1 °F 69.4 °F 66% 29.70 in 10.0 mi WSW 9.2 mph - N/A   Overcast
3:15 PM 82.9 °F 86.0 °F 68.4 °F 61% 29.70 in 10.0 mi West 12.7 mph 19.6 mph N/A   Mostly Cloudy
3:35 PM 84.7 °F 88.8 °F 69.3 °F 60% 29.69 in 10.0 mi West 15.0 mph 18.4 mph N/A   Scattered Clouds
3:55 PM 83.8 °F 87.3 °F 68.5 °F 60% 29.69 in 10.0 mi West 11.5 mph 20.7 mph N/A   Scattered Clouds
4:15 PM 84.0 °F 87.8 °F 69.4 °F 61% 29.69 in 10.0 mi West 12.7 mph 23.0 mph N/A   Mostly Cloudy
4:35 PM 83.1 °F 86.3 °F 68.2 °F 61% 29.68 in 10.0 mi WSW 16.1 mph 20.7 mph N/A   Mostly Cloudy
4:55 PM 83.3 °F 85.3 °F 65.8 °F 55% 29.69 in 10.0 mi West 15.0 mph 21.9 mph N/A   Scattered Clouds
5:15 PM 83.3 °F 85.1 °F 64.9 °F 54% 29.69 in 10.0 mi West 13.8 mph 20.7 mph N/A   Clear
5:35 PM 82.4 °F 84.6 °F 66.4 °F 58% 29.69 in 10.0 mi WNW 16.1 mph - N/A   Clear
5:55 PM 81.5 °F 84.1 °F 67.5 °F 62% 29.70 in 10.0 mi West 12.7 mph 21.9 mph N/A   Scattered Clouds
6:15 PM 80.4 °F 83.1 °F 68.0 °F 66% 29.70 in 10.0 mi WNW 13.8 mph - N/A   Scattered Clouds
6:35 PM 79.9 °F - 68.7 °F 69% 29.69 in 10.0 mi NNW 5.8 mph - N/A   Mostly Cloudy
6:55 PM 75.6 °F - 67.6 °F 76% 29.70 in 10.0 mi ENE 12.7 mph - N/A   Overcast
7:15 PM 72.5 °F - 66.4 °F 81% 29.71 in 10.0 mi East 8.1 mph - N/A   Overcast
7:35 PM 72.1 °F - 66.6 °F 83% 29.71 in 10.0 mi East 6.9 mph - N/A   Overcast
7:55 PM 71.6 °F - 66.2 °F 83% 29.71 in 10.0 mi ESE 5.8 mph - N/A   Mostly Cloudy
8:15 PM 70.7 °F - 66.4 °F 86% 29.71 in 10.0 mi East 5.8 mph - N/A   Mostly Cloudy
8:35 PM 70.2 °F - 66.6 °F 88% 29.71 in 10.0 mi Calm Calm - N/A   Overcast
8:55 PM 70.2 °F - 66.9 °F 89% 29.70 in 10.0 mi Calm Calm - N/A   Scattered Clouds
9:15 PM 70.2 °F - 66.7 °F 89% 29.70 in 10.0 mi SSE 4.6 mph - N/A   Scattered Clouds
9:35 PM 70.0 °F - 66.6 °F 89% 29.70 in 10.0 mi ENE 4.6 mph - N/A   Scattered Clouds
9:55 PM 68.9 °F - 67.5 °F 95% 29.70 in 10.0 mi NNE 6.9 mph - N/A   Mostly Cloudy
10:15 PM 68.4 °F - 67.1 °F 96% 29.71 in 10.0 mi NE 5.8 mph - N/A   Overcast
10:35 PM 67.6 °F - 67.1 °F 98% 29.69 in 3.0 mi SE 3.5 mph - 0.18 in Rain Light Rain
10:55 PM 67.1 °F - 66.7 °F 99% 29.69 in 7.0 mi Calm Calm - 0.18 in   Scattered Clouds
11:15 PM 66.4 °F - 66.2 °F 99% 29.68 in 7.0 mi Calm Calm - N/A   Clear
11:35 PM 66.2 °F - 66.0 °F 99% 29.67 in 5.0 mi Calm Calm - N/A   Clear
11:55 PM 66.2 °F - 66.2 °F 100% 29.66 in 5.0 mi Calm Calm - N/A   Clear